TimeMDT,TemperatureF,Dew PointF,Humidity,Sea Level PressureIn,VisibilityMPH,Wind Direction,Wind SpeedMPH,Gust SpeedMPH,PrecipitationIn,Events,Conditions,WindDirDegrees,DateUTC
12:00 AM,35,29,72,,,NNW,6.9,,,,,330,2013-10-13 06:00:00
12:00 AM,35.1,29.3,80,-9999,-9999.0,NNW,6.9,-,N/A,,Unknown,330,2013-10-13 06:00:00
1:00 AM,36.0,28.8,75,-9999,-9999.0,NNW,8.1,-,N/A,,Unknown,330,2013-10-13 07:00:00
2:00 AM,35.6,28.9,77,-9999,-9999.0,NNW,4.6,-,N/A,,Unknown,330,2013-10-13 08:00:00
3:00 AM,35.1,29.5,80,-9999,-9999.0,NNW,5.8,-,N/A,,Unknown,330,2013-10-13 09:00:00
4:00 AM,35.1,29.1,79,-9999,-9999.0,NNW,8.1,-,N/A,,Unknown,330,2013-10-13 10:00:00
5:00 AM,32.9,29.3,87,-9999,-9999.0,NNW,2.3,-,N/A,,Unknown,340,2013-10-13 11:00:00
6:00 AM,32,29,86,,,NNW,4.6,,,,,340,2013-10-13 12:00:00
6:00 AM,31.6,29.3,91,-9999,-9999.0,NNW,4.6,-,N/A,,Unknown,340,2013-10-13 12:00:00
7:00 AM,31.5,28.4,88,-9999,-9999.0,NNE,1.2,-,N/A,,Unknown,20,2013-10-13 13:00:00
8:00 AM,29.7,27.7,92,-9999,-9999.0,NNW,5.8,-,N/A,,Unknown,330,2013-10-13 14:00:00
9:00 AM,31.8,30.0,93,-9999,-9999.0,NNW,3.5,-,N/A,,Unknown,340,2013-10-13 15:00:00
10:00 AM,37.2,33.1,85,-9999,-9999.0,North,1.2,-,N/A,,Unknown,10,2013-10-13 16:00:00
11:00 AM,43.5,33.8,69,-9999,-9999.0,ESE,3.5,-,N/A,,Unknown,120,2013-10-13 17:00:00
12:00 PM,45,33,53,,,East,4.6,,,,,100,2013-10-13 18:00:00
12:00 PM,45.3,33.4,63,-9999,-9999.0,East,4.6,-,N/A,,Unknown,100,2013-10-13 18:00:00
1:00 PM,47.7,33.1,57,-9999,-9999.0,SE,5.8,-,N/A,,Unknown,130,2013-10-13 19:00:00
2:00 PM,46.2,30.7,55,-9999,-9999.0,ENE,4.6,-,N/A,,Unknown,70,2013-10-13 20:00:00
3:00 PM,49.3,30.0,48,-9999,-9999.0,ESE,4.6,-,N/A,,Unknown,120,2013-10-13 21:00:00
4:00 PM,45.3,30.6,56,-9999,-9999.0,ENE,5.8,-,N/A,,Unknown,70,2013-10-13 22:00:00
5:00 PM,43.9,30.6,59,-9999,-9999.0,ENE,5.8,-,N/A,,Unknown,60,2013-10-13 23:00:00
6:00 PM,43,33,59,,,East,5.8,,,,,80,2013-10-14 00:00:00
6:00 PM,42.8,33.4,70,-9999,-9999.0,East,5.8,-,N/A,,Unknown,80,2013-10-14 00:00:00
7:00 PM,40.8,33.6,76,-9999,-9999.0,East,3.5,-,N/A,,Unknown,80,2013-10-14 01:00:00
8:00 PM,39.4,33.8,80,-9999,-9999.0,NNE,2.3,-,N/A,,Unknown,20,2013-10-14 02:00:00
9:00 PM,38.5,33.3,81,-9999,-9999.0,ENE,1.2,-,N/A,,Unknown,60,2013-10-14 03:00:00
10:00 PM,38.1,34.0,85,-9999,-9999.0,NW,5.8,-,N/A,,Unknown,320,2013-10-14 04:00:00
11:00 PM,38.5,33.4,82,-9999,-9999.0,NNW,8.1,-,N/A,,Unknown,330,2013-10-14 05:00:00